Location: Kawakawa
(35.3830°S, 174.0670°E)
Time: 17:02:43
(UTC+12:00)

Milstar 3 Cent rocket - Pass Details

Date: 15 August 2020
Orbit: 707 x 5145 km, 28.3° (Epoch: 25 September)

Event Time Altitude Azimuth Distance (km) Brightness Sun altitude
Rises 18:44:44 0° 279° (W) 4,628 8.3 -11.3°
Reaches altitude 10° 18:48:35 10° 285° (WNW) 3,126 6.7 -12.1°
Maximum altitude 18:54:57 42° 353° (N) 1,177 3.1 -13.4°
Enters shadow 18:58:42 14° 61° (ENE) 1,934 3.6 -14.1°
